[[{"header":{"parameterUnit":"m.s-1","parameterCategory":1,"la1":30.2991,"la2":30.254,"lo1":-89.0895,"lo2":-89.0444,"dy":0.0017,"dx":0.0017,"nx":28,"ny":28,"refTime":"2025-02-05T03:00:00:Z","depth":0,"parameterNumber":2,"parameterNumberName":"U-component_of_WINDS"},"data":[0,0,0,0,0,0,0,0,0,0,0,0,0,0,0,0,0,0,0,0,0,0,0,0,0,0,0,0,0,0,0,0,0,0,0,0,0,0,0,0,0,0,0,0,0,0,0,0,0,0,0,0,0,0,0,0,0,0,-0.3154,-0.3154,0,-0.3086,-0.3085,-0.3085,-0.3051,-0.3051,-0.3051,-0.3051,-0.2979,-0.2977,-0.2975,0,0,0,0,0,0,0,0,0,0,0,0,0,-0.3254,-0.3252,-0.3154,-0.3154,-0.3153,-0.3086,-0.3085,-0.3085,-0.3051,-0.3051,-0.3051,-0.3051,-0.2979,-0.2977,-0.2975,0,0,0,0,0,0,0,0,0,0,0,0,0,-0.3201,-0.3252,-0.3155,-0.3128,-0.3125,-0.3087,-0.3085,-0.3084,-0.3051,-0.3051,-0.3051,-0.3051,-0.298,-0.2977,-0.2974,-0.2956,0,0,-0.2966,-0.2964,0,0,0,0,0,0,0,0,-0.3204,-0.3197,-0.3133,-0.313,-0.3126,-0.3077,-0.3094,-0.3041,-0.3051,-0.3079,-0.3051,-0.3051,-0.3011,-0.3006,-0.2993,-0.2953,-0.295,-0.2965,-0.2964,-0.2962,-0.2962,0,0,0,0,0,0,0,-0.3207,-0.32,-0.3127,-0.3132,-0.3128,-0.3119,-0.3111,-0.3084,-0.3046,-0.3077,-0.3074,-0.3066,-0.3009,-0.2996,-0.2991,-0.2949,-0.2965,-0.2963,-0.2961,-0.296,-0.2892,-0.2891,0,0,0,0,0,0,-0.3216,-0.3203,-0.3129,-0.3125,-0.3166,-0.3117,-0.3109,-0.3093,-0.3046,-0.3039,-0.3067,-0.3065,-0.3001,-0.2994,-0.2988,-0.2964,-0.2962,-0.296,-0.2958,-0.2892,-0.2892,-0.2891,0,0,0,0,0,0,-0.3218,-0.3209,-0.3132,-0.3163,-0.3153,-0.3116,-0.3098,-0.3092,-0.3078,-0.3039,-0.3031,-0.306,-0.3001,-0.2992,-0.2965,-0.2961,-0.2958,-0.2956,-0.2892,-0.2892,-0.2891,-0.2917,0,0,0,0,0,0,-0.3221,-0.321,-0.3204,-0.3164,-0.3151,-0.3111,-0.3098,-0.309,-0.3073,-0.3071,-0.303,-0.3023,-0.3,-0.297,-0.2962,-0.2957,-0.2953,-0.2892,-0.2892,-0.2892,-0.2916,-0.2917,-0.2919,0,0,0,0,0,-0.3225,-0.3213,-0.3203,-0.3195,-0.3142,-0.311,-0.3103,-0.3077,-0.3073,-0.3066,-0.3041,-0.3025,-0.2963,-0.2967,-0.2958,-0.2953,-0.2892,-0.2892,-0.2892,-0.2915,-0.2917,-0.2919,0,0,0,0,0,0,-0.3252,-0.3207,-0.3196,-0.3171,-0.3145,-0.3105,-0.3094,-0.308,-0.3054,-0.3052,-0.302,-0.3012,-0.2987,-0.2967,-0.2972,-0.2933,-0.2926,-0.2924,-0.2947,-0.2948,-0.295,-0.2955,-0.2951,0,0,0,0,0,-0.3255,-0.3234,-0.3195,-0.3177,-0.3165,-0.3132,-0.3117,-0.31,-0.3071,-0.3059,-0.3032,-0.3005,-0.2979,-0.2963,-0.2937,-0.2913,-0.2904,-0.2905,-0.2907,-0.2908,-0.2906,-0.2893,-0.2893,-0.2891,-0.2891,-0.2891,0,0,-0.3261,-0.3234,-0.3222,-0.3182,-0.3159,-0.3138,-0.3123,-0.31,-0.3083,-0.3056,-0.3028,-0.3008,-0.2975,-0.2949,-0.2937,-0.2932,-0.2905,-0.2908,-0.2909,-0.2907,-0.2892,-0.2893,-0.2893,-0.2891,-0.2891,-0.2891,0,0,-0.3261,-0.3239,-0.3221,-0.32,-0.3167,-0.3145,-0.3141,-0.3104,-0.3089,-0.3061,-0.304,-0.302,-0.2977,-0.2954,-0.2937,-0.293,-0.2915,-0.2923,-0.2929,-0.2916,-0.2917,-0.2916,-0.2914,-0.2913,-0.2921,-0.2922,-0.2922,0,-0.3273,-0.324,-0.3214,-0.3192,-0.3175,-0.3151,-0.3132,-0.3112,-0.3072,-0.3061,-0.3057,-0.3002,-0.2978,-0.2947,-0.2946,-0.2933,-0.2927,-0.2927,-0.2919,-0.2918,-0.2918,-0.2915,-0.2914,-0.2923,-0.2923,-0.2922,-0.2922,0,-0.3255,-0.3233,-0.3223,-0.3186,-0.3168,-0.3148,-0.3119,-0.3103,-0.3088,-0.3067,-0.3039,-0.301,-0.2978,-0.297,-0.2953,-0.2936,-0.2935,-0.2925,-0.2917,-0.292,-0.2917,-0.2915,-0.2924,-0.2924,-0.2924,-0.2923,0,0,-0.3269,-0.322,-0.3216,-0.32,-0.3162,-0.3144,-0.3123,-0.3093,-0.3081,-0.3054,-0.3036,-0.3001,-0.2992,-0.2973,-0.2954,-0.2943,-0.294,-0.2935,-0.2933,-0.2936,-0.2919,-0.2926,-0.2925,-0.293,-0.2929,-0.2929,-0.2922,0,-0.3264,-0.3227,-0.3203,-0.3175,-0.3154,-0.3131,-0.3113,-0.3088,-0.3068,-0.3047,-0.3025,-0.3,-0.2991,-0.2979,-0.2967,-0.2943,-0.2936,-0.2943,-0.2912,-0.2911,-0.292,-0.2924,-0.2931,-0.2925,-0.292,-0.292,-0.292,0,-0.3252,-0.3228,-0.3198,-0.3163,-0.3154,-0.3138,-0.3109,-0.3089,-0.3061,-0.3047,-0.3026,-0.3008,-0.2985,-0.298,-0.2948,-0.2954,-0.2939,-0.2926,-0.2925,-0.292,-0.2915,-0.2919,-0.2923,-0.2922,-0.2918,-0.2918,-0.2918,0,-0.3265,-0.3225,-0.3202,-0.3188,-0.3147,-0.3137,-0.312,-0.3091,-0.3075,-0.3049,-0.3038,-0.301,-0.2995,-0.2974,-0.2948,-0.2947,-0.2919,-0.2911,-0.2906,-0.2907,-0.29,-0.2901,-0.2902,-0.2893,-0.2893,-0.2893,-0.2893,0,-0.3261,-0.3243,-0.3207,-0.3193,-0.3173,-0.3146,-0.3127,-0.3107,-0.3082,-0.3064,-0.3042,-0.3025,-0.2992,-0.2971,-0.2951,-0.2928,-0.2921,-0.2909,-0.2903,-0.291,-0.2912,-0.29,-0.2899,-0.2892,-0.2892,-0.2892,-0.2892,0,-0.3272,-0.3246,-0.322,-0.3184,-0.3175,-0.3162,-0.3131,-0.3116,-0.3096,-0.3073,-0.3066,-0.3034,-0.3008,-0.298,-0.2945,-0.2931,-0.2909,-0.2902,-0.2919,-0.2915,-0.2912,-0.2912,-0.2905,-0.2902,-0.2895,-0.2895,-0.2896,0,-0.327,-0.3257,-0.322,-0.3206,-0.319,-0.3168,-0.3152,-0.3125,-0.3109,-0.3076,-0.3065,-0.3038,-0.3015,-0.2974,-0.2947,-0.292,-0.2912,-0.2911,-0.2908,-0.2915,-0.2911,-0.2912,-0.2911,-0.2912,-0.2912,-0.2913,-0.2913,0,-0.3271,-0.3259,-0.3237,-0.3211,-0.3192,-0.317,-0.3147,-0.3137,-0.3106,-0.3089,-0.3063,-0.3045,-0.3009,-0.2982,-0.2952,-0.2933,-0.2918,-0.2914,-0.2912,-0.2918,-0.2928,-0.2922,-0.2921,-0.2914,-0.2914,-0.2914,-0.2914,-0.2914,-0.3275,-0.3262,-0.3234,-0.321,-0.3191,-0.317,-0.3154,-0.3133,-0.3111,-0.308,-0.3066,-0.304,-0.3012,-0.297,-0.2952,-0.2931,-0.2926,-0.2923,-0.2921,-0.2921,-0.2922,-0.2933,-0.2925,-0.2925,-0.2925,-0.2925,-0.2925,0,-0.3274,-0.3256,-0.3234,-0.3203,-0.3184,-0.3173,-0.3147,-0.3131,-0.3109,-0.3085,-0.3063,-0.3033,-0.3007,-0.2979,-0.2951,-0.294,-0.2932,-0.2933,-0.2933,-0.2929,-0.2928,-0.2933,-0.294,-0.294,-0.294,-0.294,-0.294,-0.294,-0.3271,-0.3249,-0.3234,-0.3202,-0.3183,-0.3158,-0.3144,-0.3125,-0.3105,-0.3073,-0.3052,-0.3034,-0.3008,-0.2979,-0.2955,-0.2947,-0.2938,-0.2941,-0.2931,-0.2931,-0.2929,-0.2928,-0.2933,-0.2939,-0.2939,-0.2934,-0.2934,-0.2934]},{"header":{"parameterUnit":"m.s-1","parameterCategory":1,"la1":30.2991,"la2":30.254,"lo1":-89.0895,"lo2":-89.0444,"dy":0.0017,"dx":0.0017,"nx":28,"ny":28,"refTime":"2025-02-05T03:00:00:Z","depth":0,"parameterNumber":3,"parameterNumberName":"V-component_of_WINDS"},"data":[0,0,0,0,0,0,0,0,0,0,0,0,0,0,0,0,0,0,0,0,0,0,0,0,0,0,0,0,0,0,0,0,0,0,0,0,0,0,0,0,0,0,0,0,0,0,0,0,0,0,0,0,0,0,0,0,0,0,2.3511,2.351,0,2.3464,2.3463,2.3463,2.3457,2.3457,2.3458,2.3458,2.3404,2.3403,2.3401,0,0,0,0,0,0,0,0,0,0,0,0,0,2.3592,2.3591,2.3511,2.351,2.351,2.3464,2.3463,2.3463,2.3457,2.3457,2.3458,2.3458,2.3405,2.3403,2.3401,0,0,0,0,0,0,0,0,0,0,0,0,0,2.3552,2.359,2.3511,2.3501,2.35,2.3464,2.3463,2.3462,2.3456,2.3457,2.3458,2.3459,2.3406,2.3403,2.34,2.3369,0,0,2.3392,2.3391,0,0,0,0,0,0,0,0,2.3554,2.3549,2.3503,2.3502,2.35,2.3467,2.3472,2.3431,2.3456,2.3473,2.3458,2.3459,2.3424,2.342,2.341,2.3366,2.3364,2.3392,2.339,2.3389,2.3388,0,0,0,0,0,0,0,2.3557,2.3551,2.3492,2.3503,2.3501,2.3498,2.3493,2.3464,2.3445,2.3471,2.3471,2.3466,2.3424,2.3412,2.3408,2.3363,2.3392,2.3389,2.3387,2.3386,2.3294,2.3293,0,0,0,0,0,0,2.3562,2.3553,2.3494,2.3491,2.353,2.3496,2.3491,2.3477,2.3445,2.3441,2.3465,2.3466,2.3417,2.3411,2.3406,2.3369,2.3389,2.3386,2.3384,2.3295,2.3294,2.3293,0,0,0,0,0,0,2.3564,2.3557,2.3495,2.3522,2.3514,2.3494,2.3479,2.3476,2.3464,2.3441,2.3437,2.3457,2.3417,2.341,2.3379,2.3367,2.3385,2.3382,2.3296,2.3294,2.3293,2.3293,0,0,0,0,0,0,2.3566,2.3558,2.3546,2.3522,2.3513,2.347,2.3478,2.3474,2.346,2.346,2.3432,2.3428,2.3417,2.3383,2.3376,2.3363,2.338,2.3297,2.3295,2.3294,2.3294,2.3292,2.329,0,0,0,0,0,2.3569,2.3546,2.3546,2.3538,2.3498,2.3469,2.3464,2.3453,2.3459,2.3447,2.3432,2.3429,2.3369,2.338,2.3372,2.3358,2.3297,2.3295,2.3294,2.3295,2.3292,2.329,0,0,0,0,0,0,2.3567,2.3543,2.3542,2.3511,2.3493,2.3469,2.3453,2.345,2.3429,2.343,2.3415,2.3409,2.3379,2.3365,2.3378,2.3327,2.3334,2.333,2.3337,2.3334,2.3333,2.3336,2.3378,0,0,0,0,0,2.3564,2.3544,2.3523,2.3497,2.3489,2.3473,2.346,2.3453,2.3433,2.3425,2.3407,2.3387,2.3363,2.3348,2.3325,2.3292,2.3286,2.3278,2.3276,2.3275,2.3272,2.3255,2.3251,2.3287,2.3287,2.3287,0,0,2.3555,2.354,2.3527,2.3497,2.3482,2.3461,2.3466,2.3443,2.3427,2.342,2.3391,2.3378,2.3353,2.3322,2.3307,2.3309,2.3261,2.3273,2.3272,2.3269,2.3252,2.3249,2.3246,2.3286,2.3286,2.3286,0,0,2.353,2.3515,2.3494,2.3479,2.3458,2.3448,2.3442,2.3419,2.3411,2.3382,2.3377,2.3357,2.3317,2.33,2.3287,2.3257,2.3253,2.325,2.3239,2.3223,2.322,2.3217,2.3207,2.3204,2.3247,2.3247,2.3247,0,2.3521,2.3491,2.3482,2.346,2.3447,2.3443,2.342,2.3406,2.3377,2.3368,2.3372,2.3323,2.3306,2.3271,2.3264,2.3253,2.3246,2.3253,2.3221,2.3219,2.3216,2.3206,2.3203,2.3247,2.3247,2.3247,2.3247,0,2.3482,2.3461,2.3446,2.3421,2.3406,2.3384,2.3371,2.3357,2.3352,2.3341,2.3312,2.3292,2.3266,2.3257,2.325,2.3221,2.3224,2.3224,2.3231,2.3213,2.3203,2.3199,2.3246,2.3246,2.3246,2.3246,0,0,2.3453,2.3425,2.342,2.3409,2.3386,2.3369,2.3347,2.3324,2.3312,2.3292,2.3273,2.324,2.3242,2.3227,2.3219,2.3204,2.3183,2.3207,2.3206,2.3203,2.315,2.315,2.3146,2.3181,2.318,2.3179,2.3152,0,2.3425,2.3387,2.338,2.3346,2.3327,2.3324,2.3304,2.3287,2.3277,2.3258,2.3246,2.3223,2.3227,2.3218,2.3203,2.3189,2.3172,2.319,2.3162,2.3161,2.3169,2.3141,2.314,2.3116,2.3149,2.3148,2.3147,0,2.3387,2.337,2.3335,2.3317,2.3308,2.3291,2.327,2.3253,2.3233,2.3227,2.3211,2.3205,2.3181,2.3189,2.3156,2.3169,2.3157,2.3148,2.3147,2.3144,2.3153,2.3137,2.3107,2.3104,2.3141,2.3142,2.3142,0,2.337,2.3338,2.3314,2.3305,2.3282,2.327,2.326,2.3242,2.3229,2.3209,2.3201,2.3178,2.3166,2.3148,2.3136,2.3143,2.3104,2.3111,2.3098,2.3098,2.3089,2.309,2.3057,2.3081,2.3081,2.3081,2.3081,0,2.334,2.3319,2.3306,2.3291,2.3268,2.3259,2.3236,2.3225,2.321,2.3192,2.3186,2.317,2.3155,2.3136,2.3126,2.3101,2.3095,2.3088,2.3086,2.3089,2.309,2.3081,2.3082,2.308,2.308,2.3081,2.3081,0,2.3317,2.3308,2.3281,2.3263,2.3258,2.3242,2.3225,2.321,2.32,2.3178,2.3172,2.3156,2.3134,2.3121,2.3091,2.3085,2.3057,2.3055,2.3064,2.3063,2.3051,2.3052,2.3011,2.3006,2.3033,2.3032,2.3032,0,2.3299,2.3283,2.3264,2.3253,2.3243,2.3225,2.3213,2.3203,2.319,2.3169,2.3156,2.3134,2.3116,2.308,2.3065,2.3043,2.304,2.3028,2.3037,2.3041,2.3041,2.3042,2.3041,2.3026,2.3026,2.3026,2.3025,0,2.3267,2.3264,2.3247,2.323,2.3216,2.32,2.3185,2.3176,2.3164,2.3149,2.3128,2.3114,2.3086,2.3064,2.3041,2.3028,2.3025,2.3023,2.3019,2.3022,2.3028,2.3025,2.306,2.3024,2.3024,2.3024,2.3024,2.3024,2.3246,2.3233,2.3219,2.32,2.3189,2.3175,2.3161,2.3151,2.3133,2.3111,2.3106,2.3083,2.3065,2.3035,2.3022,2.3004,2.3005,2.2999,2.2998,2.2996,2.2997,2.3031,2.2999,2.2999,2.2999,2.2999,2.2999,0,2.3216,2.3207,2.319,2.3171,2.3156,2.3157,2.314,2.3128,2.3109,2.3094,2.3077,2.3052,2.3031,2.3016,2.2994,2.2982,2.298,2.2977,2.2977,2.2975,2.2996,2.3002,2.2979,2.2979,2.2979,2.2979,2.2979,2.2979,2.3198,2.3176,2.3171,2.3144,2.3134,2.3114,2.3105,2.3092,2.308,2.3054,2.3037,2.3028,2.3012,2.299,2.2971,2.2966,2.2959,2.2956,2.2951,2.2971,2.2973,2.2975,2.2981,2.2954,2.2954,2.2932,2.2932,2.2932]}]]